Bloomington, IL

7:09 AM CST on February 23, 2017 (GMT -0600)
Central Ill Regional

Weather History for KBMI - May, 2013

Change the Weather History Date:

Saturday, May 18, 2013

  Actual Average Record
Temperature  
Mean Temperature 71 °F -  
Max Temperature 81 °F 67 °F 89 °F (1998)
Min Temperature 61 °F 37 °F 33 °F (2002)
Cooling Degree Days 6    
Growing Degree Days 21 (Base 50)    
Moisture  
Dew Point 62 °F    
Average Humidity 76    
Maximum Humidity 97    
Minimum Humidity 49    
Precipitation  
Precipitation 0.00 in - - ()
Sea Level Pressure  
Sea Level Pressure 29.98 in    
Wind  
Wind Speed 7 mph (SSE)    
Max Wind Speed 13 mph    
Max Gust Speed 16 mph    
Visibility 7 miles    
Events      
Averages and records for this station are not official NWS values.
T = Trace of Precipitation, MM = Missing Value Source: NWS Daily Summary

Daily Weather History Graph

Daily Weather History Graph

Search for Another Location

Airport or City:

Trip Planner

Search our weather history database for the weather conditions in past years. The results will help you decide how hot, cold, wet, or windy it might be!

Date:

Astronomy

May. 18, 2013 Rise Set
Actual Time 5:36 AM CDT 8:08 PM CDT
Civil Twilight 5:05 AM CDT 8:39 PM CDT
Nautical Twilight 4:26 AM CDT 9:18 PM CDT
Astronomical Twilight 3:42 AM CDT 10:02 PM CDT
Moon 1:10 PM CDT (5/18) 1:30 AM CDT (5/18)
Length of Visible Light 15h 34m
Length of Day
14h 32m
First Quarter, 55% of the Moon is Illuminated
May 18
First Quarter
May 24
Full
May 31
Last Quarter
Jun 8
New
Jun 16
First Quarter

Hourly Weather History & Observations

Time (CDT) Temp. Heat Index Dew Point Humidity Pressure Visibility Wind Dir Wind Speed Gust Speed Precip Events Conditions
12:56 AM 63.9 °F - 61.0 °F 90% 29.99 in 6.0 mi SE 5.8 mph - N/A   Clear
1:56 AM 61.9 °F - 61.0 °F 97% 29.99 in 5.0 mi SSE 6.9 mph - N/A   Mostly Cloudy
2:56 AM 64.9 °F - 61.9 °F 90% 29.99 in 6.0 mi South 6.9 mph - N/A   Overcast
3:56 AM 64.9 °F - 61.9 °F 90% 30.00 in 6.0 mi South 8.1 mph - N/A   Overcast
4:56 AM 63.0 °F - 61.9 °F 96% 30.00 in 4.0 mi SSE 6.9 mph - N/A   Mostly Cloudy
5:46 AM 62.6 °F - 60.8 °F 94% 30.04 in 2.0 mi SSE 3.5 mph - N/A   Clear
5:56 AM 61.9 °F - 61.0 °F 97% 30.01 in 2.0 mi SSE 3.5 mph - N/A   Clear
6:56 AM 63.9 °F - 61.9 °F 93% 30.01 in 2.0 mi SSE 8.1 mph - N/A   Clear
7:47 AM 66.2 °F - 64.4 °F 94% 30.05 in 4.0 mi SSE 10.4 mph - N/A   Scattered Clouds
7:56 AM 66.9 °F - 63.9 °F 90% 30.03 in 4.0 mi SSE 8.1 mph - N/A   Scattered Clouds
8:32 AM 68.0 °F - 64.4 °F 88% 30.06 in 5.0 mi SSE 3.5 mph - N/A   Mostly Cloudy
8:56 AM 70.0 °F - 63.9 °F 81% 30.03 in 6.0 mi SSE 5.8 mph - N/A   Haze
9:56 AM 70.9 °F - 63.9 °F 78% 30.03 in 8.0 mi East 4.6 mph - N/A   Overcast
10:56 AM 72.9 °F - 61.9 °F 68% 30.02 in 9.0 mi SSE 6.9 mph - N/A   Overcast
11:56 AM 75.9 °F - 61.9 °F 62% 30.01 in 10.0 mi SSE 10.4 mph - N/A   Mostly Cloudy
12:56 PM 77.0 °F - 61.0 °F 58% 29.99 in 10.0 mi SSE 8.1 mph - N/A   Mostly Cloudy
1:56 PM 77.0 °F - 61.9 °F 59% 29.97 in 10.0 mi South 6.9 mph - N/A   Mostly Cloudy
2:56 PM 77.9 °F - 63.0 °F 60% 29.96 in 10.0 mi South 8.1 mph 16.1 mph N/A   Mostly Cloudy
3:56 PM 79.0 °F - 61.0 °F 54% 29.94 in 10.0 mi SE 11.5 mph - N/A   Overcast
4:56 PM 81.9 °F 82.5 °F 61.0 °F 49% 29.93 in 10.0 mi ESE 12.7 mph - N/A   Mostly Cloudy
5:56 PM 77.9 °F - 61.0 °F 56% 29.94 in 10.0 mi SSE 9.2 mph - N/A   Mostly Cloudy
6:56 PM 77.9 °F - 61.0 °F 56% 29.93 in 10.0 mi SSE 9.2 mph - N/A   Mostly Cloudy
7:56 PM 74.8 °F - 61.0 °F 62% 29.93 in 10.0 mi SSE 5.8 mph - N/A   Scattered Clouds
8:56 PM 70.9 °F - 61.0 °F 71% 29.94 in 10.0 mi SE 6.9 mph - N/A   Clear
9:56 PM 70.9 °F - 61.9 °F 73% 29.94 in 10.0 mi SE 8.1 mph - N/A   Clear
10:56 PM 68.9 °F - 61.9 °F 78% 29.92 in 10.0 mi SE 8.1 mph - N/A   Clear
11:56 PM 68.0 °F - 61.9 °F 81% 29.91 in 10.0 mi SE 8.1 mph - N/A   Clear